EW8359 Weather Reports


time (UTC)temp
F
wind
direction
speed
knots
gust
knots
rain 1hr
in
rain 24hr
in
rain mn
in
humidity
%
barometer
mb
20260905023044 62 306 0.0 3.5 0.00 0.06 0.06 87 1006.5
20260905021548 62 355 0.0 2.6 0.00 0.06 0.06 87 1006.6
20260905020042 63 277 0.0 2.6 0.00 0.06 0.06 87 1006.8
20260905014541 63 298 0.0 0.9 0.00 0.06 0.06 87 1006.7
20260905013044 63 297 0.0 3.5 0.00 0.06 0.06 86 1006.8
20260905011539 64 323 0.0 1.7 0.00 0.06 0.06 86 1006.9
20260905010044 64 323 0.0 0.9 0.00 0.06 0.06 86 1006.8
20260905004540 65 262 0.0 2.6 0.00 0.06 0.06 87 1006.8
20260905003038 64 196 0.0 1.7 0.00 0.06 0.06 86 1006.8
20260905001538 65 195 0.0 1.7 0.00 0.06 0.06 86 1006.8
20260905000038 65 167 0.0 2.6 0.00 0.06 0.06 86 1006.7
20260904234544 66 160 0.0 2.6 0.00 0.06 0.06 85 1006.4
20260904233036 67 236 0.0 1.7 0.00 0.06 0.06 86 1006.4
20260904231536 67 277 0.0 1.7 0.00 0.06 0.06 86 1006.2
20260904230035 68 277 0.0 1.7 0.00 0.06 0.06 86 1006.3
20260904224541 68 277 0.0 0.9 0.00 0.06 0.06 86 1006.4
20260904223034 69 277 0.0 1.7 0.00 0.06 0.06 86 1006.1
20260904221534 69 277 0.0 0.9 0.00 0.06 0.06 85 1006.1
20260904220054 70 277 0.0 0.9 0.00 0.06 0.06 85 1006.3
20260904214537 70 277 0.0 1.7 0.00 0.06 0.06 85 1006.1
20260904213033 70 44 0.0 1.7 0.00 0.06 0.06 85 1006.0
20260904211536 71 32 0.0 3.5 0.00 0.06 0.06 84 1006.1
20260904210041 72 262 0.0 1.7 0.00 0.06 0.06 86 1006.0
20260904204532 73 117 0.0 0.9 0.00 0.06 0.06 86 1006.0
20260904203043 73 117 0.0 0.9 0.00 0.06 0.06 87 1005.9
20260904201530 72 117 0.0 0.0 0.00 0.06 0.06 87 1005.8
20260904200030 72 117 0.0 1.7 0.00 0.06 0.06 87 1005.9
20260904194530 73 117 0.0 0.9 0.00 0.06 0.06 87 1005.8
20260904193032 72 117 0.0 0.9 0.00 0.06 0.06 86 1005.8
20260904191539 72 117 0.0 0.9 0.00 0.06 0.06 87 1005.7
20260904190033 72 117 0.0 0.0 0.00 0.06 0.06 86 1005.9
20260904184528 73 117 0.0 0.9 0.00 0.06 0.06 86 1006.2
20260904183024 77 117 0.0 1.7 0.00 0.06 0.06 82 1006.1
20260904181521 74 119 0.9 2.6 0.03 0.06 0.06 85 1006.1
20260904180021 73 13 0.0 0.9 0.06 0.06 0.06 88 1006.3
20260904174519 69 13 0.0 0.9 0.06 0.06 0.06 87 1006.3
20260904173030 70 13 0.0 0.9 0.06 0.06 0.06 86 1006.4
20260904171517 74 14 0.0 5.2 0.03 0.03 0.03 80 1006.5
20260904170016 75 156 0.0 0.0 0.00 0.00 0.00 74 1006.3
20260904164516 77 156 0.9 4.3 0.00 0.00 0.00 66 1006.3
20260904163011 77 343 0.9 5.2 0.00 0.00 0.00 66 1006.4
20260904161510 76 351 0.9 3.5 0.00 0.00 0.00 69 1006.5
20260904160008 76 63 0.0 1.7 0.00 0.00 0.00 72 1007.0
20260904154506 77 78 1.7 2.6 0.00 0.00 0.00 68 1006.9
20260904153003 76 131 0.9 2.6 0.00 0.00 0.00 76 1006.9
20260904151559 74 153 0.9 5.2 0.00 0.00 0.00 83 1007.0
20260904144606 73 92 0.9 3.5 0.00 0.01 0.00 81 1007.2
20260904143056 73 37 0.0 3.5 0.00 0.01 0.00 84 1007.2
20260904141550 71 30 0.9 1.7 0.00 0.01 0.00 84 1007.5
20260904140056 70 117 0.0 0.9 0.00 0.01 0.00 86 1007.6
20260904134548 69 117 0.9 2.6 0.00 0.01 0.00 88 1007.6
20260904133040 67 52 0.9 1.7 0.00 0.01 0.00 89 1007.7
20260904131537 66 50 0.0 0.9 0.00 0.01 0.00 89 1007.7
20260904130036 66 50 0.9 3.5 0.00 0.01 0.00 90 1007.6
20260904124535 66 98 0.0 2.6 0.00 0.03 0.00 90 1007.8
20260904123032 65 34 0.0 2.6 0.00 0.03 0.00 91 1007.8
20260904121532 65 38 0.0 1.7 0.00 0.03 0.00 91 1007.8
20260904120030 64 28 0.9 2.6 0.00 0.03 0.00 91 1007.9
20260904114537 63 147 0.0 0.9 0.00 0.06 0.00 91 1007.8
20260904113033 63 147 0.0 0.9 0.00 0.06 0.00 91 1007.6
20260904111527 62 147 0.0 0.9 0.00 0.06 0.00 91 1007.7
20260904110027 62 147 0.0 0.9 0.00 0.06 0.00 91 1007.5
20260904104527 61 147 0.0 0.0 0.00 0.07 0.00 91 1007.6
20260904103029 61 147 0.0 0.9 0.00 0.07 0.00 91 1007.4
20260904101526 61 153 0.0 0.9 0.00 0.07 0.00 91 1007.3
20260904100024 62 144 0.0 0.9 0.00 0.07 0.00 91 1007.2
20260904094535 62 144 0.0 1.7 0.00 0.08 0.00 91 1007.2
20260904093020 63 144 0.0 1.7 0.00 0.08 0.00 91 1007.3
20260904091521 63 144 0.0 0.0 0.00 0.08 0.00 91 1007.3
20260904090018 63 144 0.0 1.7 0.00 0.08 0.00 91 1007.4
20260904084518 63 144 0.9 1.7 0.00 0.18 0.00 91 1007.6
20260904083017 63 144 0.0 0.0 0.00 0.18 0.00 91 1007.5
20260904081518 63 144 0.0 0.9 0.00 0.18 0.00 91 1007.4
20260904080016 63 144 0.0 0.9 0.00 0.18 0.00 91 1007.2
20260904074516 63 144 0.0 0.0 0.00 0.18 0.00 91 1007.2
20260904073013 64 145 0.0 1.7 0.00 0.18 0.00 91 1007.6
20260904071516 64 145 0.0 0.9 0.00 0.18 0.00 91 1007.6
20260904070015 64 145 0.9 1.7 0.00 0.18 0.00 91 1007.8
20260904064510 64 145 0.0 2.6 0.00 0.19 0.00 91 1007.8
20260904063012 63 69 0.0 1.7 0.00 0.19 0.00 91 1007.9
20260904061505 63 44 0.0 1.7 0.00 0.19 0.00 91 1008.2
20260904060004 63 86 0.0 0.9 0.00 0.19 0.00 91 1008.4
20260904054502 63 86 0.0 0.9 0.00 0.19 0.00 91 1008.6
20260904053101 63 86 0.0 1.7 0.00 0.19 0.00 91 1008.8
20260904051559 63 86 0.0 0.9 0.00 0.19 0.00 91 1008.8
20260904050059 63 86 0.0 0.9 0.00 0.19 0.00 91 1009.0
20260904044557 63 86 0.0 0.9 0.00 0.19 0.00 91 1009.1
20260904043104 63 86 0.0 1.7 0.00 0.19 0.00 91 1009.0
20260904041553 63 86 0.0 0.9 0.00 0.19 0.00 91 1009.2
20260904040053 63 86 0.9 1.7 0.00 0.19 0.00 91 1009.3
20260904034550 63 86 0.0 0.9 0.00 0.19 0.19 91 1009.8
20260904033049 63 86 0.0 0.0 0.00 0.19 0.19 90 1009.8
20260904031550 63 86 0.0 0.0 0.00 0.19 0.19 90 1009.7
20260904030048 64 86 0.0 0.9 0.00 0.19 0.19 90 1009.7
20260904024558 64 86 0.0 0.0 0.00 0.19 0.19 90 1009.9